Regional Weather Roundup
Issued by NWS

Home | Current Version | Previous Version | Graphics & Text | Print | Product List | Glossary On
Versions: 1 2 3 4 5 6 7 8 9 10 11 12 13 14 15 16 17 18 19 20 21 22 23 24 25 26 27 28 29 30 31 32 33 34 35 36 37 38 39 40 41 42 43 44 45 46 47 48 49 50
000
ASUS43 KBIS 230510
RWRND

NORTH DAKOTA REGIONAL WEATHER ROUNDUP
NATIONAL WEATHER SERVICE BISMARCK ND
1200 AM CDT SUN JUL 23 2017

NOTE: "FAIR" INDICATES FEW OR NO CLOUDS BELOW 12,000 FEET WITH NO
SIGNIFICANT WEATHER AND/OR OBSTRUCTIONS TO VISIBILITY.


NDZ001>003-009>011-017-230600-
NORTHWEST NORTH DAKOTA

CITY           SKY/WX    TMP DP  RH WIND       PRES   REMARKS
WILLISTON      CLEAR     63  50  62 N3        30.05R
MINOT          CLEAR     61  53  75 NW7       30.03R
MINOT AFB      CLEAR     56  53  89 NW5       30.02
$$

NDZ018>021-031>035-040>046-230600-
SOUTHWEST NORTH DAKOTA

CITY           SKY/WX    TMP DP  RH WIND       PRES   REMARKS
BISMARCK       CLEAR     65  56  72 NE6       30.02S
DICKINSON      CLEAR     64  50  60 NE6       30.05R
GARRISON         N/A     57  54  89 N3        30.03R
HETTINGER ARPT CLEAR     63  48  58 CALM      30.07S
$$

NDZ004>008-012>016-024-026-027-054-230600-
NORTHEAST NORTH DAKOTA

CITY           SKY/WX    TMP DP  RH WIND       PRES   REMARKS
GRAND FORKS    CLEAR     64  61  90 NW9       29.90R
GRND FRKS AFB  CLEAR     63  58  86 N8        29.92
DEVILS LAKE    CLEAR     62  58  86 NW9       29.98S
$$

NDZ022-023-025-028>030-036>039-047>053-230600-
SOUTHEAST NORTH DAKOTA

CITY           SKY/WX    TMP DP  RH WIND       PRES   REMARKS
FARGO          CLEAR     65  59  81 NW7       29.90S
JAMESTOWN      CLEAR     64  57  78 N8        29.97R
$$




USA.gov is the U.S. government's official web portal to all federal, state and local government web resources and services.